Time,TemperatureF,DewpointF,PressureIn,WindDirection,WindDirectionDegrees,WindSpeedMPH,WindSpeedGustMPH,Humidity,HourlyPrecipIn,Conditions,Clouds,dailyrainin,SoftwareType,DateUTC
2013-10-26 00:00:00,64.5,58.5,30.19,North,360,6.0,10.0,81,0.00,,---,0.00,VWS V14.01,2013-10-26 04:00:00,
2013-10-26 00:01:00,64.5,58.5,30.19,North,360,5.0,6.0,81,0.00,,---,0.00,VWS V14.01,2013-10-26 04:01:00,
2013-10-26 00:06:00,64.4,58.5,30.19,North,360,7.0,11.0,81,0.00,,---,0.00,VWS V14.01,2013-10-26 04:06:00,
2013-10-26 00:10:00,64.4,58.5,30.19,North,360,8.0,11.0,81,0.00,,---,0.00,VWS V14.01,2013-10-26 04:10:00,
2013-10-26 00:11:00,64.4,58.5,30.19,North,360,5.0,10.0,81,0.00,,---,0.00,VWS V14.01,2013-10-26 04:11:00,
2013-10-26 00:16:00,64.3,58.3,30.18,North,360,9.0,10.0,81,0.00,,---,0.00,VWS V14.01,2013-10-26 04:16:00,
2013-10-26 00:20:00,64.3,58.3,30.18,North,360,7.0,10.0,81,0.00,,---,0.00,VWS V14.01,2013-10-26 04:20:00,
2013-10-26 00:21:00,64.3,58.3,30.19,North,360,7.0,11.0,81,0.00,,---,0.00,VWS V14.01,2013-10-26 04:21:00,
2013-10-26 00:26:00,64.2,58.6,30.18,North,360,6.0,11.0,82,0.00,,---,0.00,VWS V14.01,2013-10-26 04:26:00,
2013-10-26 00:30:00,64.1,58.5,30.18,North,360,6.0,11.0,82,0.00,,---,0.00,VWS V14.01,2013-10-26 04:30:00,
2013-10-26 00:31:00,64.1,58.5,30.18,North,360,8.0,8.0,82,0.00,,---,0.00,VWS V14.01,2013-10-26 04:31:00,
2013-10-26 00:36:00,64.1,58.5,30.18,North,360,6.0,10.0,82,0.00,,---,0.00,VWS V14.01,2013-10-26 04:36:00,
2013-10-26 00:40:00,64.1,58.5,30.18,North,360,3.0,11.0,82,0.00,,---,0.00,VWS V14.01,2013-10-26 04:40:00,
2013-10-26 00:41:00,64.1,58.5,30.18,North,360,8.0,11.0,82,0.00,,---,0.00,VWS V14.01,2013-10-26 04:41:00,
2013-10-26 00:46:00,64.0,58.4,30.17,North,360,7.0,11.0,82,0.00,,---,0.00,VWS V14.01,2013-10-26 04:46:00,
2013-10-26 00:50:00,64.0,58.4,30.17,North,360,4.0,11.0,82,0.00,,---,0.00,VWS V14.01,2013-10-26 04:50:00,
2013-10-26 00:51:00,64.0,58.4,30.17,North,360,5.0,12.0,82,0.00,,---,0.00,VWS V14.01,2013-10-26 04:51:00,
2013-10-26 00:56:00,63.9,58.3,30.17,North,360,7.0,12.0,82,0.00,,---,0.00,VWS V14.01,2013-10-26 04:56:00,
2013-10-26 01:00:00,63.9,58.3,30.17,North,360,9.0,12.0,82,0.00,,---,0.00,VWS V14.01,2013-10-26 05:00:00,
2013-10-26 01:01:00,63.9,58.3,30.17,North,360,3.0,9.0,82,0.00,,---,0.00,VWS V14.01,2013-10-26 05:01:00,
2013-10-26 01:06:00,63.8,58.2,30.17,North,360,2.0,9.0,82,0.00,,---,0.00,VWS V14.01,2013-10-26 05:06:00,
2013-10-26 01:10:00,63.7,58.1,30.17,North,360,6.0,9.0,82,0.00,,---,0.00,VWS V14.01,2013-10-26 05:10:00,
2013-10-26 01:11:00,63.6,58.0,30.17,North,360,5.0,9.0,82,0.00,,---,0.00,VWS V14.01,2013-10-26 05:11:00,
2013-10-26 01:16:00,63.4,58.2,30.17,North,360,2.0,9.0,83,0.00,,---,0.00,VWS V14.01,2013-10-26 05:16:00,
2013-10-26 01:20:00,63.4,58.2,30.17,North,360,4.0,9.0,83,0.00,,---,0.00,VWS V14.01,2013-10-26 05:20:00,
2013-10-26 01:21:00,63.4,58.2,30.17,North,360,1.0,5.0,83,0.00,,---,0.00,VWS V14.01,2013-10-26 05:21:00,
2013-10-26 01:26:00,63.3,58.1,30.17,North,360,0.0,6.0,83,0.00,,---,0.00,VWS V14.01,2013-10-26 05:26:00,
2013-10-26 01:30:00,63.2,58.0,30.17,North,360,0.0,6.0,83,0.00,,---,0.00,VWS V14.01,2013-10-26 05:30:00,
2013-10-26 01:31:00,63.2,58.0,30.17,North,360,3.0,4.0,83,0.00,,---,0.00,VWS V14.01,2013-10-26 05:31:00,
2013-10-26 01:36:00,63.1,58.2,30.17,North,360,0.0,5.0,84,0.00,,---,0.00,VWS V14.01,2013-10-26 05:36:00,
2013-10-26 01:40:00,62.9,58.0,30.17,North,360,3.0,6.0,84,0.00,,---,0.00,VWS V14.01,2013-10-26 05:40:00,
2013-10-26 01:41:00,62.9,58.0,30.17,North,360,2.0,3.0,84,0.00,,---,0.00,VWS V14.01,2013-10-26 05:41:00,
2013-10-26 01:46:00,62.9,58.0,30.17,North,360,6.0,7.0,84,0.00,,---,0.00,VWS V14.01,2013-10-26 05:46:00,
2013-10-26 01:50:00,62.8,57.9,30.17,North,360,0.0,7.0,84,0.00,,---,0.00,VWS V14.01,2013-10-26 05:50:00,
2013-10-26 01:51:00,62.7,57.8,30.17,North,360,0.0,0.0,84,0.00,,---,0.00,VWS V14.01,2013-10-26 05:51:00,
2013-10-26 01:56:00,62.6,58.0,30.16,North,360,4.0,5.0,85,0.00,,---,0.00,VWS V14.01,2013-10-26 05:56:00,
2013-10-26 02:00:00,62.5,57.9,30.16,North,360,3.0,6.0,85,0.00,,---,0.00,VWS V14.01,2013-10-26 06:00:00,
2013-10-26 02:01:00,62.4,57.8,30.16,North,360,3.0,4.0,85,0.00,,---,0.00,VWS V14.01,2013-10-26 06:01:00,
2013-10-26 02:06:00,62.3,57.7,30.16,North,360,3.0,4.0,85,0.00,,---,0.00,VWS V14.01,2013-10-26 06:06:00,
2013-10-26 02:10:00,62.3,57.7,30.16,North,360,6.0,7.0,85,0.00,,---,0.00,VWS V14.01,2013-10-26 06:10:00,
2013-10-26 02:11:00,62.3,57.7,30.16,North,360,5.0,6.0,85,0.00,,---,0.00,VWS V14.01,2013-10-26 06:11:00,
2013-10-26 02:17:00,62.2,57.6,30.16,North,360,2.0,6.0,85,0.00,,---,0.00,VWS V14.01,2013-10-26 06:17:00,
2013-10-26 02:20:00,62.2,57.6,30.16,North,360,3.0,6.0,85,0.00,,---,0.00,VWS V14.01,2013-10-26 06:20:00,
2013-10-26 02:22:00,62.1,57.5,30.16,North,360,4.0,5.0,85,0.00,,---,0.00,VWS V14.01,2013-10-26 06:22:00,
2013-10-26 02:27:00,61.8,57.2,30.15,North,360,3.0,6.0,85,0.00,,---,0.00,VWS V14.01,2013-10-26 06:27:00,
2013-10-26 02:30:00,61.6,57.4,30.15,North,360,1.0,8.0,86,0.00,,---,0.00,VWS V14.01,2013-10-26 06:30:00,
2013-10-26 02:32:00,61.5,57.0,30.15,North,360,6.0,6.0,85,0.00,,---,0.00,VWS V14.01,2013-10-26 06:32:00,
2013-10-26 02:36:00,61.4,57.2,30.15,North,360,6.0,9.0,86,0.00,,---,0.00,VWS V14.01,2013-10-26 06:36:00,
2013-10-26 02:40:00,61.3,57.1,30.15,North,360,4.0,9.0,86,0.00,,---,0.00,VWS V14.01,2013-10-26 06:40:00,
2013-10-26 02:41:00,61.3,57.1,30.15,North,360,7.0,7.0,86,0.00,,---,0.00,VWS V14.01,2013-10-26 06:41:00,
2013-10-26 02:46:00,61.3,57.1,30.15,North,360,3.0,7.0,86,0.00,,---,0.00,VWS V14.01,2013-10-26 06:46:00,
2013-10-26 02:50:00,61.2,57.0,30.15,North,360,3.0,7.0,86,0.00,,---,0.00,VWS V14.01,2013-10-26 06:50:00,
2013-10-26 02:51:00,61.2,57.0,30.15,North,360,2.0,4.0,86,0.00,,---,0.00,VWS V14.01,2013-10-26 06:51:00,
2013-10-26 02:56:00,61.1,56.9,30.14,North,360,2.0,5.0,86,0.00,,---,0.00,VWS V14.01,2013-10-26 06:56:00,
2013-10-26 03:00:00,61.0,56.8,30.14,North,360,3.0,5.0,86,0.00,,---,0.00,VWS V14.01,2013-10-26 07:00:00,
2013-10-26 03:02:00,60.9,56.7,30.14,North,360,2.0,3.0,86,0.00,,---,0.00,VWS V14.01,2013-10-26 07:02:00,
2013-10-26 03:07:00,60.7,56.5,30.14,North,360,1.0,3.0,86,0.00,,---,0.00,VWS V14.01,2013-10-26 07:07:00,
2013-10-26 03:10:00,60.5,56.6,30.14,North,360,2.0,5.0,87,0.00,,---,0.00,VWS V14.01,2013-10-26 07:10:00,
2013-10-26 03:12:00,60.5,56.6,30.14,North,360,4.0,5.0,87,0.00,,---,0.00,VWS V14.01,2013-10-26 07:12:00,
2013-10-26 03:17:00,60.3,56.4,30.14,North,360,2.0,5.0,87,0.00,,---,0.00,VWS V14.01,2013-10-26 07:17:00,
2013-10-26 03:20:00,60.2,56.6,30.14,North,360,0.0,5.0,88,0.00,,---,0.00,VWS V14.01,2013-10-26 07:20:00,
2013-10-26 03:22:00,60.2,56.6,30.14,North,360,0.0,2.0,88,0.00,,---,0.00,VWS V14.01,2013-10-26 07:22:00,
2013-10-26 03:27:00,60.0,56.4,30.14,North,360,1.0,4.0,88,0.00,,---,0.00,VWS V14.01,2013-10-26 07:27:00,
2013-10-26 03:30:00,59.9,56.3,30.14,North,360,2.0,4.0,88,0.00,,---,0.00,VWS V14.01,2013-10-26 07:30:00,
2013-10-26 03:32:00,59.8,56.2,30.14,North,360,1.0,3.0,88,0.00,,---,0.00,VWS V14.01,2013-10-26 07:32:00,
2013-10-26 03:37:00,59.6,56.0,30.14,North,360,1.0,5.0,88,0.00,,---,0.00,VWS V14.01,2013-10-26 07:37:00,
2013-10-26 03:40:00,59.5,56.0,30.14,North,360,2.0,5.0,88,0.00,,---,0.00,VWS V14.01,2013-10-26 07:40:00,
2013-10-26 03:42:00,59.4,55.8,30.13,North,360,1.0,4.0,88,0.00,,---,0.00,VWS V14.01,2013-10-26 07:42:00,
2013-10-26 03:47:00,59.3,56.1,30.13,North,360,0.0,6.0,89,0.00,,---,0.00,VWS V14.01,2013-10-26 07:47:00,
2013-10-26 03:50:00,59.3,56.1,30.14,North,360,0.0,6.0,89,0.00,,---,0.00,VWS V14.01,2013-10-26 07:50:00,
2013-10-26 03:52:00,59.3,56.1,30.14,North,360,1.0,3.0,89,0.00,,---,0.00,VWS V14.01,2013-10-26 07:52:00,
2013-10-26 03:57:00,59.2,56.0,30.14,North,360,0.0,4.0,89,0.00,,---,0.00,VWS V14.01,2013-10-26 07:57:00,
2013-10-26 04:00:00,59.1,56.2,30.14,North,360,1.0,4.0,90,0.00,,---,0.00,VWS V14.01,2013-10-26 08:00:00,
2013-10-26 04:02:00,59.1,56.2,30.14,North,360,2.0,3.0,90,0.00,,---,0.00,VWS V14.01,2013-10-26 08:02:00,
2013-10-26 04:07:00,59.1,56.2,30.13,North,360,0.0,4.0,90,0.00,,---,0.00,VWS V14.01,2013-10-26 08:07:00,
2013-10-26 04:10:00,59.1,56.2,30.13,North,360,1.0,6.0,90,0.00,,---,0.00,VWS V14.01,2013-10-26 08:10:00,
2013-10-26 04:12:00,59.1,56.2,30.13,North,360,3.0,4.0,90,0.00,,---,0.00,VWS V14.01,2013-10-26 08:12:00,
2013-10-26 04:17:00,59.2,56.3,30.13,North,360,0.0,6.0,90,0.00,,---,0.00,VWS V14.01,2013-10-26 08:17:00,
2013-10-26 04:20:00,59.3,56.4,30.13,North,360,3.0,6.0,90,0.00,,---,0.00,VWS V14.01,2013-10-26 08:20:00,
2013-10-26 04:22:00,59.4,56.5,30.13,North,360,2.0,4.0,90,0.00,,---,0.00,VWS V14.01,2013-10-26 08:22:00,
2013-10-26 04:27:00,59.5,56.3,30.13,North,360,3.0,5.0,89,0.00,,---,0.00,VWS V14.01,2013-10-26 08:27:00,
2013-10-26 04:30:00,59.6,56.4,30.12,North,360,4.0,7.0,89,0.00,,---,0.00,VWS V14.01,2013-10-26 08:30:00,
2013-10-26 04:32:00,59.6,56.4,30.12,North,360,3.0,5.0,89,0.00,,---,0.00,VWS V14.01,2013-10-26 08:32:00,
2013-10-26 04:37:00,59.7,56.5,30.12,North,360,3.0,6.0,89,0.00,,---,0.00,VWS V14.01,2013-10-26 08:37:00,
2013-10-26 04:40:00,59.8,56.6,30.12,North,360,1.0,6.0,89,0.00,,---,0.00,VWS V14.01,2013-10-26 08:40:00,
2013-10-26 04:42:00,59.8,56.2,30.12,North,360,3.0,5.0,88,0.00,,---,0.00,VWS V14.01,2013-10-26 08:42:00,
2013-10-26 04:47:00,59.7,56.2,30.12,North,360,4.0,7.0,88,0.00,,---,0.00,VWS V14.01,2013-10-26 08:47:00,
2013-10-26 04:50:00,59.7,56.2,30.12,North,360,1.0,7.0,88,0.00,,---,0.00,VWS V14.01,2013-10-26 08:50:00,
2013-10-26 04:52:00,59.7,56.2,30.12,North,360,2.0,3.0,88,0.00,,---,0.00,VWS V14.01,2013-10-26 08:52:00,
2013-10-26 04:57:00,59.7,56.2,30.12,North,360,2.0,7.0,88,0.00,,---,0.00,VWS V14.01,2013-10-26 08:57:00,
2013-10-26 05:00:00,59.8,56.2,30.12,North,360,3.0,7.0,88,0.00,,---,0.00,VWS V14.01,2013-10-26 09:00:00,
2013-10-26 05:02:00,59.8,56.2,30.12,North,360,4.0,4.0,88,0.00,,---,0.00,VWS V14.01,2013-10-26 09:02:00,
2013-10-26 05:06:00,59.8,56.2,30.12,North,360,1.0,5.0,88,0.00,,---,0.00,VWS V14.01,2013-10-26 09:06:00,
2013-10-26 05:10:00,59.7,56.2,30.12,North,360,2.0,5.0,88,0.00,,---,0.00,VWS V14.01,2013-10-26 09:10:00,
2013-10-26 05:11:00,59.7,56.2,30.12,North,360,2.0,4.0,88,0.00,,---,0.00,VWS V14.01,2013-10-26 09:11:00,
2013-10-26 05:16:00,59.5,56.0,30.12,North,360,4.0,5.0,88,0.00,,---,0.00,VWS V14.01,2013-10-26 09:16:00,
2013-10-26 05:20:00,59.4,55.8,30.12,North,360,0.0,5.0,88,0.00,,---,0.00,VWS V14.01,2013-10-26 09:20:00,
2013-10-26 05:21:00,59.4,55.8,30.12,North,360,2.0,2.0,88,0.00,,---,0.00,VWS V14.01,2013-10-26 09:21:00,
2013-10-26 05:26:00,59.3,55.8,30.12,North,360,0.0,3.0,88,0.00,,---,0.00,VWS V14.01,2013-10-26 09:26:00,
2013-10-26 05:30:00,59.1,55.6,30.13,North,360,0.0,4.0,88,0.00,,---,0.00,VWS V14.01,2013-10-26 09:30:00,
2013-10-26 05:31:00,59.1,55.5,30.13,North,360,0.0,3.0,88,0.00,,---,0.00,VWS V14.01,2013-10-26 09:31:00,
2013-10-26 05:36:00,58.9,55.4,30.13,North,360,0.0,3.0,88,0.00,,---,0.00,VWS V14.01,2013-10-26 09:36:00,
2013-10-26 05:40:00,58.7,55.5,30.13,North,360,0.0,3.0,89,0.00,,---,0.00,VWS V14.01,2013-10-26 09:40:00,
2013-10-26 05:41:00,58.7,55.5,30.13,North,360,0.0,0.0,89,0.00,,---,0.00,VWS V14.01,2013-10-26 09:41:00,
2013-10-26 05:46:00,58.5,55.3,30.13,North,360,2.0,4.0,89,0.00,,---,0.00,VWS V14.01,2013-10-26 09:46:00,
2013-10-26 05:50:00,58.3,55.1,30.13,North,360,1.0,4.0,89,0.00,,---,0.00,VWS V14.01,2013-10-26 09:50:00,
2013-10-26 05:51:00,58.2,55.0,30.13,North,360,2.0,3.0,89,0.00,,---,0.00,VWS V14.01,2013-10-26 09:51:00,
2013-10-26 05:56:00,58.0,54.8,30.13,North,360,3.0,4.0,89,0.00,,---,0.00,VWS V14.01,2013-10-26 09:56:00,
2013-10-26 06:00:00,57.8,54.9,30.13,North,360,2.0,5.0,90,0.00,,---,0.00,VWS V14.01,2013-10-26 10:00:00,
2013-10-26 06:01:00,57.8,54.9,30.13,North,360,0.0,3.0,90,0.00,,---,0.00,VWS V14.01,2013-10-26 10:01:00,
2013-10-26 06:06:00,57.6,54.7,30.14,North,360,3.0,4.0,90,0.00,,---,0.00,VWS V14.01,2013-10-26 10:06:00,
2013-10-26 06:10:00,57.5,54.6,30.14,North,360,3.0,4.0,90,0.00,,---,0.00,VWS V14.01,2013-10-26 10:10:00,
2013-10-26 06:11:00,57.5,54.6,30.14,North,360,0.0,4.0,90,0.00,,---,0.00,VWS V14.01,2013-10-26 10:11:00,
2013-10-26 06:16:00,57.5,54.9,30.14,North,360,4.0,4.0,91,0.00,,---,0.00,VWS V14.01,2013-10-26 10:16:00,
2013-10-26 06:20:00,57.4,54.8,30.14,North,360,2.0,4.0,91,0.00,,---,0.00,VWS V14.01,2013-10-26 10:20:00,
2013-10-26 06:21:00,57.4,54.8,30.14,North,360,2.0,4.0,91,0.00,,---,0.00,VWS V14.01,2013-10-26 10:21:00,
2013-10-26 06:26:00,57.2,54.6,30.14,North,360,3.0,4.0,91,0.00,,---,0.00,VWS V14.01,2013-10-26 10:26:00,
2013-10-26 06:30:00,57.1,54.5,30.14,North,360,2.0,6.0,91,0.00,,---,0.00,VWS V14.01,2013-10-26 10:30:00,
2013-10-26 06:31:00,57.1,54.5,30.14,North,360,3.0,4.0,91,0.00,,---,0.00,VWS V14.01,2013-10-26 10:31:00,
2013-10-26 06:36:00,57.1,54.8,30.14,North,360,3.0,5.0,92,0.00,,---,0.00,VWS V14.01,2013-10-26 10:36:00,
2013-10-26 06:40:00,57.2,54.9,30.14,North,360,1.0,5.0,92,0.00,,---,0.00,VWS V14.01,2013-10-26 10:40:00,
2013-10-26 06:41:00,57.2,54.9,30.14,North,360,2.0,3.0,92,0.00,,---,0.00,VWS V14.01,2013-10-26 10:41:00,
2013-10-26 06:46:00,57.3,55.0,30.14,North,360,2.0,4.0,92,0.00,,---,0.00,VWS V14.01,2013-10-26 10:46:00,
2013-10-26 06:50:00,57.4,55.1,30.14,North,360,0.0,5.0,92,0.00,,---,0.00,VWS V14.01,2013-10-26 10:50:00,
2013-10-26 06:51:00,57.4,55.1,30.14,North,360,1.0,2.0,92,0.00,,---,0.00,VWS V14.01,2013-10-26 10:51:00,
2013-10-26 06:56:00,57.5,55.2,30.15,North,360,4.0,6.0,92,0.00,,---,0.00,VWS V14.01,2013-10-26 10:56:00,
2013-10-26 07:00:00,57.5,55.2,30.15,North,360,2.0,6.0,92,0.00,,---,0.00,VWS V14.01,2013-10-26 11:00:00,
2013-10-26 07:01:00,57.6,55.3,30.15,North,360,0.0,4.0,92,0.00,,---,0.00,VWS V14.01,2013-10-26 11:01:00,
2013-10-26 07:06:00,57.6,55.3,30.15,North,360,2.0,4.0,92,0.00,,---,0.00,VWS V14.01,2013-10-26 11:06:00,
2013-10-26 07:10:00,57.6,55.3,30.15,North,360,3.0,4.0,92,0.00,,---,0.00,VWS V14.01,2013-10-26 11:10:00,
2013-10-26 07:11:00,57.6,55.3,30.15,North,360,1.0,3.0,92,0.00,,---,0.00,VWS V14.01,2013-10-26 11:11:00,
2013-10-26 07:16:00,57.5,55.2,30.15,North,360,1.0,5.0,92,0.00,,---,0.00,VWS V14.01,2013-10-26 11:16:00,
2013-10-26 07:20:00,57.5,54.9,30.15,North,360,3.0,5.0,91,0.00,,---,0.00,VWS V14.01,2013-10-26 11:20:00,
2013-10-26 07:21:00,57.4,54.8,30.16,North,360,3.0,4.0,91,0.00,,---,0.00,VWS V14.01,2013-10-26 11:21:00,
2013-10-26 07:26:00,57.3,54.7,30.16,North,360,0.0,4.0,91,0.00,,---,0.00,VWS V14.01,2013-10-26 11:26:00,
2013-10-26 07:30:00,57.3,54.7,30.16,North,360,0.0,4.0,91,0.00,,---,0.00,VWS V14.01,2013-10-26 11:30:00,
2013-10-26 07:31:00,57.3,54.7,30.16,North,360,1.0,2.0,91,0.00,,---,0.00,VWS V14.01,2013-10-26 11:31:00,
2013-10-26 07:36:00,57.2,54.6,30.16,North,360,2.0,4.0,91,0.00,,---,0.00,VWS V14.01,2013-10-26 11:36:00,
2013-10-26 07:40:00,57.1,54.5,30.16,North,360,2.0,4.0,91,0.00,,---,0.00,VWS V14.01,2013-10-26 11:40:00,
2013-10-26 07:41:00,57.1,54.5,30.16,North,360,2.0,3.0,91,0.00,,---,0.00,VWS V14.01,2013-10-26 11:41:00,
2013-10-26 07:46:00,57.0,54.4,30.16,North,360,1.0,3.0,91,0.00,,---,0.00,VWS V14.01,2013-10-26 11:46:00,
2013-10-26 07:50:00,57.0,54.7,30.16,North,360,1.0,4.0,92,0.00,,---,0.00,VWS V14.01,2013-10-26 11:50:00,
2013-10-26 07:51:00,57.0,54.7,30.16,North,360,0.0,2.0,92,0.00,,---,0.00,VWS V14.01,2013-10-26 11:51:00,
2013-10-26 07:56:00,57.1,54.8,30.16,North,360,1.0,5.0,92,0.00,,---,0.00,VWS V14.01,2013-10-26 11:56:00,
2013-10-26 08:00:00,57.1,54.8,30.16,North,360,1.0,5.0,92,0.00,,---,0.00,VWS V14.01,2013-10-26 12:00:00,
2013-10-26 08:01:00,57.2,54.9,30.16,North,360,2.0,4.0,92,0.00,,---,0.00,VWS V14.01,2013-10-26 12:01:00,
2013-10-26 08:06:00,57.5,55.2,30.16,North,360,2.0,6.0,92,0.00,,---,0.00,VWS V14.01,2013-10-26 12:06:00,
2013-10-26 08:10:00,57.8,55.2,30.17,North,360,5.0,6.0,91,0.00,,---,0.00,VWS V14.01,2013-10-26 12:10:00,
2013-10-26 08:11:00,57.9,55.3,30.17,North,360,4.0,5.0,91,0.00,,---,0.00,VWS V14.01,2013-10-26 12:11:00,
2013-10-26 08:16:00,58.3,55.4,30.17,North,360,2.0,5.0,90,0.00,,---,0.00,VWS V14.01,2013-10-26 12:16:00,
2013-10-26 08:20:00,58.6,55.7,30.17,North,360,5.0,6.0,90,0.00,,---,0.00,VWS V14.01,2013-10-26 12:20:00,
2013-10-26 08:21:00,58.6,55.7,30.17,North,360,4.0,6.0,90,0.00,,---,0.00,VWS V14.01,2013-10-26 12:21:00,
2013-10-26 08:26:00,59.1,55.9,30.16,North,360,7.0,7.0,89,0.00,,---,0.00,VWS V14.01,2013-10-26 12:26:00,
2013-10-26 08:30:00,59.3,55.8,30.17,North,360,4.0,8.0,88,0.00,,---,0.00,VWS V14.01,2013-10-26 12:30:00,
2013-10-26 08:31:00,59.4,55.8,30.17,North,360,6.0,6.0,88,0.00,,---,0.00,VWS V14.01,2013-10-26 12:31:00,
2013-10-26 08:36:00,59.8,55.9,30.17,North,360,4.0,9.0,87,0.00,,---,0.00,VWS V14.01,2013-10-26 12:36:00,
2013-10-26 08:40:00,60.3,56.1,30.17,North,360,3.0,9.0,86,0.00,,---,0.00,VWS V14.01,2013-10-26 12:40:00,
2013-10-26 08:41:00,60.4,56.5,30.17,North,360,5.0,8.0,87,0.00,,---,0.00,VWS V14.01,2013-10-26 12:41:00,
2013-10-26 08:46:00,61.4,56.9,30.17,North,360,3.0,10.0,85,0.00,,---,0.00,VWS V14.01,2013-10-26 12:46:00,
2013-10-26 08:50:00,61.9,56.7,30.17,North,360,7.0,10.0,83,0.00,,---,0.00,VWS V14.01,2013-10-26 12:50:00,
2013-10-26 08:51:00,62.0,56.5,30.17,North,360,7.0,7.0,82,0.00,,---,0.00,VWS V14.01,2013-10-26 12:51:00,
2013-10-26 08:56:00,62.1,56.5,30.18,North,360,4.0,10.0,82,0.00,,---,0.00,VWS V14.01,2013-10-26 12:56:00,
2013-10-26 09:00:00,62.1,56.5,30.18,North,360,3.0,10.0,82,0.00,,---,0.00,VWS V14.01,2013-10-26 13:00:00,
2013-10-26 09:01:00,62.2,56.6,30.18,North,360,5.0,6.0,82,0.00,,---,0.00,VWS V14.01,2013-10-26 13:01:00,
2013-10-26 09:06:00,62.9,58.0,30.19,North,360,3.0,6.0,84,0.00,,---,0.00,VWS V14.01,2013-10-26 13:06:00,
2013-10-26 09:10:00,64.0,58.1,30.18,North,360,6.0,7.0,81,0.00,,---,0.00,VWS V14.01,2013-10-26 13:10:00,
2013-10-26 09:11:00,64.2,57.6,30.19,North,360,4.0,6.0,79,0.00,,---,0.00,VWS V14.01,2013-10-26 13:11:00,
2013-10-26 09:16:00,64.9,57.9,30.19,North,360,6.0,9.0,78,0.00,,---,0.00,VWS V14.01,2013-10-26 13:16:00,
2013-10-26 09:20:00,65.6,58.6,30.19,North,360,8.0,9.0,78,0.00,,---,0.00,VWS V14.01,2013-10-26 13:20:00,
2013-10-26 09:21:00,65.8,58.4,30.19,North,360,5.0,8.0,77,0.00,,---,0.00,VWS V14.01,2013-10-26 13:21:00,
2013-10-26 09:26:00,66.5,58.0,30.18,North,360,3.0,9.0,74,0.00,,---,0.00,VWS V14.01,2013-10-26 13:26:00,
2013-10-26 09:30:00,66.8,58.6,30.19,North,360,2.0,9.0,75,0.00,,---,0.00,VWS V14.01,2013-10-26 13:30:00,
2013-10-26 09:31:00,66.8,58.3,30.18,North,360,2.0,5.0,74,0.00,,---,0.00,VWS V14.01,2013-10-26 13:31:00,
2013-10-26 09:36:00,66.9,57.6,30.18,North,360,6.0,10.0,72,0.00,,---,0.00,VWS V14.01,2013-10-26 13:36:00,
2013-10-26 09:40:00,67.0,58.1,30.18,North,360,6.0,10.0,73,0.00,,---,0.00,VWS V14.01,2013-10-26 13:40:00,
2013-10-26 09:41:00,67.1,57.8,30.19,North,360,2.0,7.0,72,0.00,,---,0.00,VWS V14.01,2013-10-26 13:41:00,
2013-10-26 09:46:00,67.5,58.2,30.19,North,360,8.0,8.0,72,0.00,,---,0.00,VWS V14.01,2013-10-26 13:46:00,
2013-10-26 09:50:00,68.0,57.9,30.19,North,360,1.0,10.0,70,0.00,,---,0.00,VWS V14.01,2013-10-26 13:50:00,
2013-10-26 09:51:00,68.1,58.0,30.19,North,360,4.0,9.0,70,0.00,,---,0.00,VWS V14.01,2013-10-26 13:51:00,
2013-10-26 09:56:00,68.7,58.1,30.19,North,360,7.0,11.0,69,0.00,,---,0.00,VWS V14.01,2013-10-26 13:56:00,
2013-10-26 10:00:00,69.3,58.7,30.18,North,360,6.0,11.0,69,0.00,,---,0.00,VWS V14.01,2013-10-26 14:00:00,
2013-10-26 10:01:00,69.4,58.4,30.18,North,360,4.0,7.0,68,0.00,,---,0.00,VWS V14.01,2013-10-26 14:01:00,
2013-10-26 10:06:00,68.7,58.1,30.18,North,360,8.0,10.0,69,0.00,,---,0.00,VWS V14.01,2013-10-26 14:06:00,
2013-10-26 10:10:00,69.1,58.1,30.19,North,360,6.0,10.0,68,0.00,,---,0.00,VWS V14.01,2013-10-26 14:10:00,
2013-10-26 10:11:00,69.2,58.2,30.19,North,360,9.0,9.0,68,0.00,,---,0.00,VWS V14.01,2013-10-26 14:11:00,
2013-10-26 10:16:00,69.9,58.9,30.19,North,360,5.0,11.0,68,0.00,,---,0.00,VWS V14.01,2013-10-26 14:16:00,
2013-10-26 10:20:00,70.1,58.2,30.19,North,360,9.0,11.0,66,0.00,,---,0.00,VWS V14.01,2013-10-26 14:20:00,
2013-10-26 10:21:00,70.1,57.8,30.19,North,360,7.0,9.0,65,0.00,,---,0.00,VWS V14.01,2013-10-26 14:21:00,
2013-10-26 10:26:00,70.2,58.3,30.19,North,360,8.0,11.0,66,0.00,,---,0.00,VWS V14.01,2013-10-26 14:26:00,
2013-10-26 10:30:00,70.7,58.8,30.19,North,360,9.0,12.0,66,0.00,,---,0.00,VWS V14.01,2013-10-26 14:30:00,
2013-10-26 10:31:00,70.8,58.5,30.19,North,360,4.0,9.0,65,0.00,,---,0.00,VWS V14.01,2013-10-26 14:31:00,
2013-10-26 10:36:00,70.6,58.3,30.19,North,360,6.0,10.0,65,0.00,,---,0.00,VWS V14.01,2013-10-26 14:36:00,
2013-10-26 10:40:00,70.4,58.9,30.19,North,360,4.0,10.0,67,0.00,,---,0.00,VWS V14.01,2013-10-26 14:40:00,
2013-10-26 10:41:00,70.4,58.5,30.19,North,360,6.0,9.0,66,0.00,,---,0.00,VWS V14.01,2013-10-26 14:41:00,
2013-10-26 10:46:00,70.9,58.6,30.19,North,360,5.0,10.0,65,0.00,,---,0.00,VWS V14.01,2013-10-26 14:46:00,
2013-10-26 10:50:00,71.0,58.7,30.19,North,360,3.0,10.0,65,0.00,,---,0.00,VWS V14.01,2013-10-26 14:50:00,
2013-10-26 10:51:00,71.0,58.7,30.19,North,360,5.0,7.0,65,0.00,,---,0.00,VWS V14.01,2013-10-26 14:51:00,
2013-10-26 10:56:00,71.0,58.2,30.19,North,360,5.0,9.0,64,0.00,,---,0.00,VWS V14.01,2013-10-26 14:56:00,
2013-10-26 11:00:00,71.2,58.8,30.19,North,360,5.0,9.0,65,0.00,,---,0.00,VWS V14.01,2013-10-26 15:00:00,
2013-10-26 11:01:00,71.3,59.4,30.19,North,360,6.0,7.0,66,0.00,,---,0.00,VWS V14.01,2013-10-26 15:01:00,
2013-10-26 11:06:00,71.7,58.5,30.19,North,360,2.0,8.0,63,0.00,,---,0.00,VWS V14.01,2013-10-26 15:06:00,
2013-10-26 11:10:00,72.2,58.9,30.19,North,360,5.0,8.0,63,0.00,,---,0.00,VWS V14.01,2013-10-26 15:10:00,
2013-10-26 11:11:00,72.3,59.0,30.19,North,360,5.0,6.0,63,0.00,,---,0.00,VWS V14.01,2013-10-26 15:11:00,
2013-10-26 11:16:00,72.6,58.8,30.19,North,360,6.0,9.0,62,0.00,,---,0.00,VWS V14.01,2013-10-26 15:16:00,
2013-10-26 11:20:00,72.9,59.1,30.19,North,360,6.0,9.0,62,0.00,,---,0.00,VWS V14.01,2013-10-26 15:20:00,
2013-10-26 11:21:00,73.0,58.8,30.19,North,360,8.0,10.0,61,0.00,,---,0.00,VWS V14.01,2013-10-26 15:21:00,
2013-10-26 11:26:00,73.0,59.2,30.19,North,360,5.0,10.0,62,0.00,,---,0.00,VWS V14.01,2013-10-26 15:26:00,
2013-10-26 11:30:00,73.2,60.3,30.18,North,360,5.0,10.0,64,0.00,,---,0.00,VWS V14.01,2013-10-26 15:30:00,
2013-10-26 11:31:00,73.4,60.0,30.18,North,360,3.0,6.0,63,0.00,,---,0.00,VWS V14.01,2013-10-26 15:31:00,
2013-10-26 11:36:00,73.9,59.6,30.18,North,360,5.0,8.0,61,0.00,,---,0.00,VWS V14.01,2013-10-26 15:36:00,
2013-10-26 11:40:00,73.8,58.1,30.18,North,360,4.0,9.0,58,0.00,,---,0.00,VWS V14.01,2013-10-26 15:40:00,
2013-10-26 11:41:00,73.7,58.0,30.18,North,360,4.0,4.0,58,0.00,,---,0.00,VWS V14.01,2013-10-26 15:41:00,
2013-10-26 11:46:00,73.8,59.5,30.18,North,360,6.0,7.0,61,0.00,,---,0.00,VWS V14.01,2013-10-26 15:46:00,
2013-10-26 11:50:00,74.2,58.5,30.18,North,360,4.0,8.0,58,0.00,,---,0.00,VWS V14.01,2013-10-26 15:50:00,
2013-10-26 11:51:00,74.2,58.0,30.18,North,360,3.0,5.0,57,0.00,,---,0.00,VWS V14.01,2013-10-26 15:51:00,
2013-10-26 11:56:00,74.5,60.2,30.18,North,360,0.0,6.0,61,0.00,,---,0.00,VWS V14.01,2013-10-26 15:56:00,
2013-10-26 12:00:00,75.0,58.8,30.18,North,360,6.0,8.0,57,0.00,,---,0.00,VWS V14.01,2013-10-26 16:00:00,
2013-10-26 12:01:00,75.1,58.3,30.17,North,360,5.0,7.0,56,0.00,,---,0.00,VWS V14.01,2013-10-26 16:01:00,
2013-10-26 12:06:00,74.7,59.0,30.17,North,360,3.0,8.0,58,0.00,,---,0.00,VWS V14.01,2013-10-26 16:06:00,
2013-10-26 12:10:00,74.8,58.1,30.17,North,360,4.0,8.0,56,0.00,,---,0.00,VWS V14.01,2013-10-26 16:10:00,
2013-10-26 12:11:00,74.8,58.1,30.17,North,360,6.0,7.0,56,0.00,,---,0.00,VWS V14.01,2013-10-26 16:11:00,
2013-10-26 12:16:00,74.1,57.4,30.17,North,360,5.0,8.0,56,0.00,,---,0.00,VWS V14.01,2013-10-26 16:16:00,
2013-10-26 12:20:00,74.3,59.1,30.17,North,360,2.0,8.0,59,0.00,,---,0.00,VWS V14.01,2013-10-26 16:20:00,
2013-10-26 12:21:00,74.5,58.3,30.17,North,360,3.0,3.0,57,0.00,,---,0.00,VWS V14.01,2013-10-26 16:21:00,
2013-10-26 12:26:00,74.9,58.7,30.17,North,360,5.0,8.0,57,0.00,,---,0.00,VWS V14.01,2013-10-26 16:26:00,
2013-10-26 12:30:00,75.4,59.1,30.17,North,360,0.0,8.0,57,0.00,,---,0.00,VWS V14.01,2013-10-26 16:30:00,
2013-10-26 12:31:00,75.5,58.7,30.17,North,360,2.0,3.0,56,0.00,,---,0.00,VWS V14.01,2013-10-26 16:31:00,
2013-10-26 12:36:00,76.2,59.9,30.16,North,360,8.0,9.0,57,0.00,,---,0.00,VWS V14.01,2013-10-26 16:36:00,
2013-10-26 12:40:00,76.7,58.8,30.16,North,360,4.0,9.0,54,0.00,,---,0.00,VWS V14.01,2013-10-26 16:40:00,
2013-10-26 12:41:00,76.6,57.7,30.16,North,360,5.0,6.0,52,0.00,,---,0.00,VWS V14.01,2013-10-26 16:41:00,
2013-10-26 12:46:00,75.8,56.4,30.16,North,360,5.0,7.0,51,0.00,,---,0.00,VWS V14.01,2013-10-26 16:46:00,
2013-10-26 12:50:00,75.5,56.7,30.16,North,360,4.0,7.0,52,0.00,,---,0.00,VWS V14.01,2013-10-26 16:50:00,
2013-10-26 12:51:00,75.5,57.7,30.16,North,360,4.0,6.0,54,0.00,,---,0.00,VWS V14.01,2013-10-26 16:51:00,
2013-10-26 12:56:00,76.2,58.4,30.15,North,360,1.0,7.0,54,0.00,,---,0.00,VWS V14.01,2013-10-26 16:56:00,
2013-10-26 13:00:00,76.2,57.8,30.15,North,360,3.0,7.0,53,0.00,,---,0.00,VWS V14.01,2013-10-26 17:00:00,
2013-10-26 13:01:00,76.1,57.2,30.15,North,360,3.0,3.0,52,0.00,,---,0.00,VWS V14.01,2013-10-26 17:01:00,
2013-10-26 13:06:00,76.1,55.6,30.15,North,360,3.0,10.0,49,0.00,,---,0.00,VWS V14.01,2013-10-26 17:06:00,
2013-10-26 13:10:00,76.0,55.5,30.15,North,360,0.0,10.0,49,0.00,,---,0.00,VWS V14.01,2013-10-26 17:10:00,
2013-10-26 13:11:00,75.9,57.0,30.14,North,360,1.0,1.0,52,0.00,,---,0.00,VWS V14.01,2013-10-26 17:11:00,
2013-10-26 13:16:00,76.5,55.9,30.14,North,360,4.0,7.0,49,0.00,,---,0.00,VWS V14.01,2013-10-26 17:16:00,
2013-10-26 13:20:00,76.6,56.0,30.14,North,360,6.0,7.0,49,0.00,,---,0.00,VWS V14.01,2013-10-26 17:20:00,
2013-10-26 13:21:00,76.6,54.9,30.14,North,360,1.0,6.0,47,0.00,,---,0.00,VWS V14.01,2013-10-26 17:21:00,
2013-10-26 13:26:00,76.8,52.6,30.13,North,360,6.0,7.0,43,0.00,,---,0.00,VWS V14.01,2013-10-26 17:26:00,
2013-10-26 13:30:00,77.3,54.3,30.13,North,360,0.0,7.0,45,0.00,,---,0.00,VWS V14.01,2013-10-26 17:30:00,
2013-10-26 13:31:00,77.5,53.3,30.13,North,360,8.0,8.0,43,0.00,,---,0.00,VWS V14.01,2013-10-26 17:31:00,
2013-10-26 13:36:00,77.4,51.9,30.13,North,360,5.0,8.0,41,0.00,,---,0.00,VWS V14.01,2013-10-26 17:36:00,
2013-10-26 13:40:00,77.6,52.7,30.12,North,360,6.0,8.0,42,0.00,,---,0.00,VWS V14.01,2013-10-26 17:40:00,
2013-10-26 13:42:00,77.6,52.7,30.12,North,360,9.0,9.0,42,0.00,,---,0.00,VWS V14.01,2013-10-26 17:42:00,
2013-10-26 13:47:00,77.2,50.3,30.12,North,360,6.0,10.0,39,0.00,,---,0.00,VWS V14.01,2013-10-26 17:47:00,
2013-10-26 13:50:00,77.5,51.3,30.12,North,360,4.0,10.0,40,0.00,,---,0.00,VWS V14.01,2013-10-26 17:50:00,
2013-10-26 13:52:00,77.6,50.0,30.12,North,360,2.0,4.0,38,0.00,,---,0.00,VWS V14.01,2013-10-26 17:52:00,
2013-10-26 13:57:00,77.6,47.8,30.12,North,360,0.0,7.0,35,0.00,,---,0.00,VWS V14.01,2013-10-26 17:57:00,
2013-10-26 14:00:00,77.5,49.9,30.12,North,360,2.0,7.0,38,0.00,,---,0.00,VWS V14.01,2013-10-26 18:00:00,
2013-10-26 14:02:00,77.6,49.3,30.11,North,360,5.0,6.0,37,0.00,,---,0.00,VWS V14.01,2013-10-26 18:02:00,
2013-10-26 14:07:00,77.6,48.6,30.11,North,360,0.0,7.0,36,0.00,,---,0.00,VWS V14.01,2013-10-26 18:07:00,
2013-10-26 14:10:00,77.7,48.7,30.11,North,360,2.0,7.0,36,0.00,,---,0.00,VWS V14.01,2013-10-26 18:10:00,
2013-10-26 14:12:00,77.8,46.4,30.11,North,360,3.0,3.0,33,0.00,,---,0.00,VWS V14.01,2013-10-26 18:12:00,
2013-10-26 14:17:00,78.3,51.3,30.11,North,360,4.0,8.0,39,0.00,,---,0.00,VWS V14.01,2013-10-26 18:17:00,
2013-10-26 14:20:00,78.5,51.5,30.11,North,360,4.0,8.0,39,0.00,,---,0.00,VWS V14.01,2013-10-26 18:20:00,
2013-10-26 14:22:00,78.5,50.8,30.11,North,360,3.0,5.0,38,0.00,,---,0.00,VWS V14.01,2013-10-26 18:22:00,
2013-10-26 14:27:00,77.9,49.6,30.11,North,360,1.0,6.0,37,0.00,,---,0.00,VWS V14.01,2013-10-26 18:27:00,
2013-10-26 14:30:00,77.8,51.6,30.11,North,360,4.0,6.0,40,0.00,,---,0.00,VWS V14.01,2013-10-26 18:30:00,
2013-10-26 14:32:00,77.9,51.7,30.11,North,360,1.0,5.0,40,0.00,,---,0.00,VWS V14.01,2013-10-26 18:32:00,
2013-10-26 14:37:00,78.2,51.9,30.10,North,360,0.0,5.0,40,0.00,,---,0.00,VWS V14.01,2013-10-26 18:37:00,
2013-10-26 14:40:00,78.4,54.7,30.10,North,360,6.0,8.0,44,0.00,,---,0.00,VWS V14.01,2013-10-26 18:40:00,
2013-10-26 14:42:00,78.4,54.1,30.10,North,360,3.0,6.0,43,0.00,,---,0.00,VWS V14.01,2013-10-26 18:42:00,
2013-10-26 14:47:00,78.6,54.3,30.10,North,360,6.0,7.0,43,0.00,,---,0.00,VWS V14.01,2013-10-26 18:47:00,
2013-10-26 14:50:00,78.8,53.8,30.10,North,360,1.0,7.0,42,0.00,,---,0.00,VWS V14.01,2013-10-26 18:50:00,
2013-10-26 14:52:00,78.9,55.2,30.10,North,360,2.0,3.0,44,0.00,,---,0.00,VWS V14.01,2013-10-26 18:52:00,
2013-10-26 14:57:00,79.0,53.3,30.10,North,360,4.0,10.0,41,0.00,,---,0.00,VWS V14.01,2013-10-26 18:57:00,
2013-10-26 15:00:00,78.6,52.3,30.10,North,360,4.0,10.0,40,0.00,,---,0.00,VWS V14.01,2013-10-26 19:00:00,
2013-10-26 15:02:00,78.5,53.5,30.10,North,360,4.0,5.0,42,0.00,,---,0.00,VWS V14.01,2013-10-26 19:02:00,
2013-10-26 15:07:00,78.3,54.0,30.10,North,360,3.0,5.0,43,0.00,,---,0.00,VWS V14.01,2013-10-26 19:07:00,
2013-10-26 15:10:00,78.2,52.6,30.09,North,360,4.0,5.0,41,0.00,,---,0.00,VWS V14.01,2013-10-26 19:10:00,
2013-10-26 15:12:00,78.2,54.5,30.09,North,360,1.0,4.0,44,0.00,,---,0.00,VWS V14.01,2013-10-26 19:12:00,
2013-10-26 15:17:00,78.5,54.2,30.09,North,360,6.0,8.0,43,0.00,,---,0.00,VWS V14.01,2013-10-26 19:17:00,
2013-10-26 15:20:00,78.8,53.1,30.09,North,360,3.0,9.0,41,0.00,,---,0.00,VWS V14.01,2013-10-26 19:20:00,
2013-10-26 15:22:00,78.9,53.2,30.09,North,360,2.0,6.0,41,0.00,,---,0.00,VWS V14.01,2013-10-26 19:22:00,
2013-10-26 15:27:00,79.0,54.0,30.09,North,360,8.0,8.0,42,0.00,,---,0.00,VWS V14.01,2013-10-26 19:27:00,
2013-10-26 15:30:00,79.1,54.1,30.09,North,360,8.0,8.0,42,0.00,,---,0.00,VWS V14.01,2013-10-26 19:30:00,
2013-10-26 15:32:00,79.2,55.4,30.09,North,360,4.0,9.0,44,0.00,,---,0.00,VWS V14.01,2013-10-26 19:32:00,
2013-10-26 15:37:00,79.3,53.6,30.09,North,360,3.0,9.0,41,0.00,,---,0.00,VWS V14.01,2013-10-26 19:37:00,
2013-10-26 15:40:00,79.4,55.6,30.09,North,360,5.0,9.0,44,0.00,,---,0.00,VWS V14.01,2013-10-26 19:40:00,
2013-10-26 15:42:00,79.4,55.0,30.09,North,360,1.0,5.0,43,0.00,,---,0.00,VWS V14.01,2013-10-26 19:42:00,
2013-10-26 15:47:00,79.3,56.1,30.08,North,360,4.0,8.0,45,0.00,,---,0.00,VWS V14.01,2013-10-26 19:47:00,
2013-10-26 15:50:00,79.4,55.0,30.08,North,360,2.0,9.0,43,0.00,,---,0.00,VWS V14.01,2013-10-26 19:50:00,
2013-10-26 15:52:00,79.5,54.4,30.08,North,360,3.0,5.0,42,0.00,,---,0.00,VWS V14.01,2013-10-26 19:52:00,
2013-10-26 15:57:00,79.7,55.9,30.08,North,360,3.0,8.0,44,0.00,,---,0.00,VWS V14.01,2013-10-26 19:57:00,
2013-10-26 16:00:00,79.6,53.8,30.08,North,360,7.0,9.0,41,0.00,,---,0.00,VWS V14.01,2013-10-26 20:00:00,
2013-10-26 16:02:00,79.5,53.1,30.08,North,360,5.0,10.0,40,0.00,,---,0.00,VWS V14.01,2013-10-26 20:02:00,
2013-10-26 16:07:00,78.9,53.9,30.08,North,360,6.0,10.0,42,0.00,,---,0.00,VWS V14.01,2013-10-26 20:07:00,
2013-10-26 16:10:00,79.0,54.6,30.08,North,360,6.0,10.0,43,0.00,,---,0.00,VWS V14.01,2013-10-26 20:10:00,
2013-10-26 16:12:00,79.2,54.8,30.08,North,360,0.0,9.0,43,0.00,,---,0.00,VWS V14.01,2013-10-26 20:12:00,
2013-10-26 16:17:00,79.6,55.2,30.08,North,360,4.0,9.0,43,0.00,,---,0.00,VWS V14.01,2013-10-26 20:17:00,
2013-10-26 16:20:00,79.8,54.0,30.08,North,360,4.0,9.0,41,0.00,,---,0.00,VWS V14.01,2013-10-26 20:20:00,
2013-10-26 16:22:00,79.8,53.4,30.08,North,360,5.0,8.0,40,0.00,,---,0.00,VWS V14.01,2013-10-26 20:22:00,
2013-10-26 16:27:00,79.5,53.8,30.08,North,360,5.0,8.0,41,0.00,,---,0.00,VWS V14.01,2013-10-26 20:27:00,
2013-10-26 16:30:00,79.1,54.1,30.07,North,360,6.0,11.0,42,0.00,,---,0.00,VWS V14.01,2013-10-26 20:30:00,
2013-10-26 16:32:00,79.1,54.1,30.08,North,360,6.0,7.0,42,0.00,,---,0.00,VWS V14.01,2013-10-26 20:32:00,
2013-10-26 16:37:00,79.1,54.1,30.08,North,360,4.0,8.0,42,0.00,,---,0.00,VWS V14.01,2013-10-26 20:37:00,
2013-10-26 16:40:00,79.2,54.2,30.08,North,360,4.0,8.0,42,0.00,,---,0.00,VWS V14.01,2013-10-26 20:40:00,
2013-10-26 16:42:00,79.2,54.8,30.08,North,360,3.0,6.0,43,0.00,,---,0.00,VWS V14.01,2013-10-26 20:42:00,
2013-10-26 16:47:00,78.9,54.5,30.08,North,360,4.0,9.0,43,0.00,,---,0.00,VWS V14.01,2013-10-26 20:47:00,
2013-10-26 16:50:00,78.8,55.1,30.08,North,360,4.0,9.0,44,0.00,,---,0.00,VWS V14.01,2013-10-26 20:50:00,
2013-10-26 16:52:00,78.9,55.2,30.08,North,360,7.0,8.0,44,0.00,,---,0.00,VWS V14.01,2013-10-26 20:52:00,
2013-10-26 16:57:00,79.1,56.0,30.08,North,360,2.0,8.0,45,0.00,,---,0.00,VWS V14.01,2013-10-26 20:57:00,
2013-10-26 17:00:00,79.3,54.2,30.08,North,360,5.0,8.0,42,0.00,,---,0.00,VWS V14.01,2013-10-26 21:00:00,
2013-10-26 17:02:00,79.2,53.5,30.08,North,360,8.0,8.0,41,0.00,,---,0.00,VWS V14.01,2013-10-26 21:02:00,
2013-10-26 17:07:00,79.1,54.1,30.08,North,360,2.0,8.0,42,0.00,,---,0.00,VWS V14.01,2013-10-26 21:07:00,
2013-10-26 17:10:00,78.9,54.5,30.08,North,360,6.0,8.0,43,0.00,,---,0.00,VWS V14.01,2013-10-26 21:10:00,
2013-10-26 17:12:00,78.9,53.9,30.08,North,360,4.0,6.0,42,0.00,,---,0.00,VWS V14.01,2013-10-26 21:12:00,
2013-10-26 17:17:00,78.8,55.1,30.08,North,360,7.0,8.0,44,0.00,,---,0.00,VWS V14.01,2013-10-26 21:17:00,
2013-10-26 17:20:00,78.9,53.9,30.08,North,360,4.0,8.0,42,0.00,,---,0.00,VWS V14.01,2013-10-26 21:20:00,
2013-10-26 17:22:00,78.9,53.9,30.08,North,360,6.0,7.0,42,0.00,,---,0.00,VWS V14.01,2013-10-26 21:22:00,
2013-10-26 17:27:00,78.9,55.2,30.08,North,360,4.0,7.0,44,0.00,,---,0.00,VWS V14.01,2013-10-26 21:27:00,
2013-10-26 17:30:00,78.9,53.9,30.08,North,360,6.0,7.0,42,0.00,,---,0.00,VWS V14.01,2013-10-26 21:30:00,
2013-10-26 17:32:00,78.9,54.5,30.07,North,360,7.0,7.0,43,0.00,,---,0.00,VWS V14.01,2013-10-26 21:32:00,
2013-10-26 17:37:00,79.0,54.0,30.08,North,360,6.0,9.0,42,0.00,,---,0.00,VWS V14.01,2013-10-26 21:37:00,
2013-10-26 17:40:00,78.9,53.9,30.08,North,360,5.0,9.0,42,0.00,,---,0.00,VWS V14.01,2013-10-26 21:40:00,
2013-10-26 17:42:00,78.9,54.5,30.08,North,360,5.0,9.0,43,0.00,,---,0.00,VWS V14.01,2013-10-26 21:42:00,
2013-10-26 17:47:00,78.7,54.3,30.07,North,360,5.0,9.0,43,0.00,,---,0.00,VWS V14.01,2013-10-26 21:47:00,
2013-10-26 17:50:00,78.6,54.9,30.07,North,360,4.0,9.0,44,0.00,,---,0.00,VWS V14.01,2013-10-26 21:50:00,
2013-10-26 17:52:00,78.5,54.2,30.07,North,360,4.0,7.0,43,0.00,,---,0.00,VWS V14.01,2013-10-26 21:52:00,
2013-10-26 17:57:00,77.9,53.6,30.07,North,360,4.0,8.0,43,0.00,,---,0.00,VWS V14.01,2013-10-26 21:57:00,
2013-10-26 18:00:00,77.6,53.4,30.07,North,360,1.0,8.0,43,0.00,,---,0.00,VWS V14.01,2013-10-26 22:00:00,
2013-10-26 18:02:00,77.4,53.8,30.07,North,360,6.0,6.0,44,0.00,,---,0.00,VWS V14.01,2013-10-26 22:02:00,
2013-10-26 18:07:00,77.1,53.5,30.07,North,360,1.0,8.0,44,0.00,,---,0.00,VWS V14.01,2013-10-26 22:07:00,
2013-10-26 18:10:00,76.8,53.9,30.07,North,360,2.0,8.0,45,0.00,,---,0.00,VWS V14.01,2013-10-26 22:10:00,
2013-10-26 18:12:00,76.7,53.2,30.07,North,360,2.0,3.0,44,0.00,,---,0.00,VWS V14.01,2013-10-26 22:12:00,
2013-10-26 18:17:00,76.1,53.2,30.07,North,360,1.0,5.0,45,0.00,,---,0.00,VWS V14.01,2013-10-26 22:17:00,
2013-10-26 18:20:00,75.6,53.4,30.07,North,360,2.0,5.0,46,0.00,,---,0.00,VWS V14.01,2013-10-26 22:20:00,
2013-10-26 18:22:00,75.3,53.7,30.07,North,360,1.0,4.0,47,0.00,,---,0.00,VWS V14.01,2013-10-26 22:22:00,
2013-10-26 18:27:00,74.6,54.2,30.07,North,360,1.0,5.0,49,0.00,,---,0.00,VWS V14.01,2013-10-26 22:27:00,
2013-10-26 18:30:00,74.2,53.8,30.07,North,360,3.0,5.0,49,0.00,,---,0.00,VWS V14.01,2013-10-26 22:30:00,
2013-10-26 18:32:00,73.9,53.6,30.07,North,360,2.0,4.0,49,0.00,,---,0.00,VWS V14.01,2013-10-26 22:32:00,
2013-10-26 18:37:00,73.3,53.0,30.08,North,360,3.0,4.0,49,0.00,,---,0.00,VWS V14.01,2013-10-26 22:37:00,
2013-10-26 18:40:00,72.9,52.6,30.08,North,360,1.0,4.0,49,0.00,,---,0.00,VWS V14.01,2013-10-26 22:40:00,
2013-10-26 18:42:00,72.6,52.4,30.08,North,360,2.0,3.0,49,0.00,,---,0.00,VWS V14.01,2013-10-26 22:42:00,
2013-10-26 18:47:00,72.1,52.5,30.08,North,360,0.0,3.0,50,0.00,,---,0.00,VWS V14.01,2013-10-26 22:47:00,
2013-10-26 18:50:00,71.8,52.2,30.08,North,360,3.0,3.0,50,0.00,,---,0.00,VWS V14.01,2013-10-26 22:50:00,
2013-10-26 18:52:00,71.6,52.5,30.08,North,360,1.0,3.0,51,0.00,,---,0.00,VWS V14.01,2013-10-26 22:52:00,
2013-10-26 18:57:00,71.1,52.1,30.08,North,360,2.0,3.0,51,0.00,,---,0.00,VWS V14.01,2013-10-26 22:57:00,
2013-10-26 19:00:00,70.8,52.3,30.08,North,360,0.0,3.0,52,0.00,,---,0.00,VWS V14.01,2013-10-26 23:00:00,
2013-10-26 19:02:00,70.6,52.1,30.08,North,360,0.0,1.0,52,0.00,,---,0.00,VWS V14.01,2013-10-26 23:02:00,
2013-10-26 19:07:00,70.3,52.4,30.08,North,360,1.0,2.0,53,0.00,,---,0.00,VWS V14.01,2013-10-26 23:07:00,
2013-10-26 19:10:00,70.0,52.6,30.08,North,360,0.0,2.0,54,0.00,,---,0.00,VWS V14.01,2013-10-26 23:10:00,
2013-10-26 19:12:00,69.8,52.4,30.08,North,360,0.0,0.0,54,0.00,,---,0.00,VWS V14.01,2013-10-26 23:12:00,
2013-10-26 19:17:00,69.3,52.5,30.08,North,360,0.0,0.0,55,0.00,,---,0.00,VWS V14.01,2013-10-26 23:17:00,
2013-10-26 19:20:00,69.0,53.2,30.08,North,360,0.0,0.0,57,0.00,,---,0.00,VWS V14.01,2013-10-26 23:20:00,
2013-10-26 19:22:00,68.8,53.0,30.08,North,360,0.0,0.0,57,0.00,,---,0.00,VWS V14.01,2013-10-26 23:22:00,
2013-10-26 19:27:00,68.2,52.9,30.08,North,360,0.0,0.0,58,0.00,,---,0.00,VWS V14.01,2013-10-26 23:27:00,
2013-10-26 19:30:00,67.9,53.1,30.08,North,360,0.0,0.0,59,0.00,,---,0.00,VWS V14.01,2013-10-26 23:30:00,
2013-10-26 19:32:00,67.7,52.9,30.08,North,360,0.0,0.0,59,0.00,,---,0.00,VWS V14.01,2013-10-26 23:32:00,
2013-10-26 19:37:00,67.1,53.2,30.08,North,360,0.0,0.0,61,0.00,,---,0.00,VWS V14.01,2013-10-26 23:37:00,
2013-10-26 19:40:00,66.7,53.3,30.08,North,360,0.0,0.0,62,0.00,,---,0.00,VWS V14.01,2013-10-26 23:40:00,
2013-10-26 19:42:00,66.5,53.1,30.08,North,360,0.0,0.0,62,0.00,,---,0.00,VWS V14.01,2013-10-26 23:42:00,
2013-10-26 19:47:00,66.0,53.5,30.08,North,360,0.0,0.0,64,0.00,,---,0.00,VWS V14.01,2013-10-26 23:47:00,
2013-10-26 19:50:00,65.7,53.6,30.08,North,360,0.0,0.0,65,0.00,,---,0.00,VWS V14.01,2013-10-26 23:50:00,
2013-10-26 19:52:00,65.6,53.5,30.08,North,360,0.0,0.0,65,0.00,,---,0.00,VWS V14.01,2013-10-26 23:52:00,
2013-10-26 19:57:00,65.1,53.5,30.08,North,360,0.0,0.0,66,0.00,,---,0.00,VWS V14.01,2013-10-26 23:57:00,
2013-10-26 20:00:00,64.8,53.6,30.09,North,360,0.0,0.0,67,0.00,,---,0.00,VWS V14.01,2013-10-27 00:00:00,
2013-10-26 20:02:00,64.7,53.5,30.09,North,360,0.0,0.0,67,0.00,,---,0.00,VWS V14.01,2013-10-27 00:02:00,
2013-10-26 20:07:00,64.3,53.5,30.09,North,360,0.0,0.0,68,0.00,,---,0.00,VWS V14.01,2013-10-27 00:07:00,
2013-10-26 20:10:00,64.1,53.3,30.09,North,360,0.0,0.0,68,0.00,,---,0.00,VWS V14.01,2013-10-27 00:10:00,
2013-10-26 20:12:00,64.0,53.2,30.09,North,360,0.0,0.0,68,0.00,,---,0.00,VWS V14.01,2013-10-27 00:12:00,
2013-10-26 20:17:00,63.7,53.7,30.09,North,360,0.0,0.0,70,0.00,,---,0.00,VWS V14.01,2013-10-27 00:17:00,
2013-10-26 20:20:00,63.4,53.5,30.09,North,360,0.0,0.0,70,0.00,,---,0.00,VWS V14.01,2013-10-27 00:20:00,
2013-10-26 20:22:00,63.3,53.8,30.09,North,360,0.0,0.0,71,0.00,,---,0.00,VWS V14.01,2013-10-27 00:22:00,
2013-10-26 20:27:00,63.0,53.8,30.09,North,360,0.0,0.0,72,0.00,,---,0.00,VWS V14.01,2013-10-27 00:27:00,
2013-10-26 20:30:00,62.7,53.5,30.10,North,360,0.0,0.0,72,0.00,,---,0.00,VWS V14.01,2013-10-27 00:30:00,
2013-10-26 20:32:00,62.6,53.8,30.09,North,360,0.0,0.0,73,0.00,,---,0.00,VWS V14.01,2013-10-27 00:32:00,
2013-10-26 20:37:00,62.3,53.5,30.10,North,360,0.0,0.0,73,0.00,,---,0.00,VWS V14.01,2013-10-27 00:37:00,
2013-10-26 20:40:00,62.2,53.8,30.10,North,360,0.0,0.0,74,0.00,,---,0.00,VWS V14.01,2013-10-27 00:40:00,
2013-10-26 20:42:00,62.2,53.8,30.10,North,360,0.0,0.0,74,0.00,,---,0.00,VWS V14.01,2013-10-27 00:42:00,
2013-10-26 20:47:00,61.8,53.8,30.10,North,360,0.0,0.0,75,0.00,,---,0.00,VWS V14.01,2013-10-27 00:47:00,
2013-10-26 20:50:00,61.7,53.7,30.10,North,360,0.0,0.0,75,0.00,,---,0.00,VWS V14.01,2013-10-27 00:50:00,
2013-10-26 20:52:00,61.6,53.6,30.10,North,360,0.0,0.0,75,0.00,,---,0.00,VWS V14.01,2013-10-27 00:52:00,
2013-10-26 20:57:00,61.3,54.0,30.10,North,360,1.0,2.0,77,0.00,,---,0.00,VWS V14.01,2013-10-27 00:57:00,
2013-10-26 21:00:00,61.1,53.8,30.11,North,360,2.0,3.0,77,0.00,,---,0.00,VWS V14.01,2013-10-27 01:00:00,
2013-10-26 21:02:00,61.1,53.5,30.11,North,360,0.0,3.0,76,0.00,,---,0.00,VWS V14.01,2013-10-27 01:02:00,
2013-10-26 21:07:00,61.0,53.4,30.11,North,360,0.0,3.0,76,0.00,,---,0.00,VWS V14.01,2013-10-27 01:07:00,
2013-10-26 21:10:00,61.0,53.4,30.11,North,360,0.0,3.0,76,0.00,,---,0.00,VWS V14.01,2013-10-27 01:10:00,
2013-10-26 21:12:00,61.0,53.4,30.11,North,360,0.0,1.0,76,0.00,,---,0.00,VWS V14.01,2013-10-27 01:12:00,
2013-10-26 21:17:00,60.9,52.9,30.11,North,360,0.0,1.0,75,0.00,,---,0.00,VWS V14.01,2013-10-27 01:17:00,
2013-10-26 21:20:00,60.8,53.2,30.11,North,360,0.0,1.0,76,0.00,,---,0.00,VWS V14.01,2013-10-27 01:20:00,
2013-10-26 21:22:00,60.8,53.2,30.11,North,360,0.0,0.0,76,0.00,,---,0.00,VWS V14.01,2013-10-27 01:22:00,
2013-10-26 21:27:00,60.7,53.5,30.11,North,360,0.0,0.0,77,0.00,,---,0.00,VWS V14.01,2013-10-27 01:27:00,
2013-10-26 21:30:00,60.6,53.4,30.11,North,360,0.0,0.0,77,0.00,,---,0.00,VWS V14.01,2013-10-27 01:30:00,
2013-10-26 21:32:00,60.5,53.3,30.11,North,360,0.0,0.0,77,0.00,,---,0.00,VWS V14.01,2013-10-27 01:32:00,
2013-10-26 21:37:00,60.3,53.8,30.12,North,360,0.0,0.0,79,0.00,,---,0.00,VWS V14.01,2013-10-27 01:37:00,
2013-10-26 21:40:00,60.1,53.6,30.12,North,360,0.0,0.0,79,0.00,,---,0.00,VWS V14.01,2013-10-27 01:40:00,
2013-10-26 21:42:00,60.1,53.6,30.11,North,360,0.0,0.0,79,0.00,,---,0.00,VWS V14.01,2013-10-27 01:42:00,
2013-10-26 21:47:00,59.9,53.7,30.12,North,360,0.0,0.0,80,0.00,,---,0.00,VWS V14.01,2013-10-27 01:47:00,
2013-10-26 21:50:00,59.7,53.5,30.12,North,360,0.0,0.0,80,0.00,,---,0.00,VWS V14.01,2013-10-27 01:50:00,
2013-10-26 21:52:00,59.7,53.5,30.12,North,360,0.0,0.0,80,0.00,,---,0.00,VWS V14.01,2013-10-27 01:52:00,
2013-10-26 21:57:00,59.4,53.2,30.12,North,360,0.0,0.0,80,0.00,,---,0.00,VWS V14.01,2013-10-27 01:57:00,
2013-10-26 22:00:00,59.3,53.5,30.12,North,360,0.0,0.0,81,0.00,,---,0.00,VWS V14.01,2013-10-27 02:00:00,
2013-10-26 22:02:00,59.2,53.4,30.12,North,360,0.0,0.0,81,0.00,,---,0.00,VWS V14.01,2013-10-27 02:02:00,
2013-10-26 22:07:00,58.9,53.1,30.12,North,360,0.0,0.0,81,0.00,,---,0.00,VWS V14.01,2013-10-27 02:07:00,
2013-10-26 22:10:00,58.7,53.2,30.12,North,360,2.0,2.0,82,0.00,,---,0.00,VWS V14.01,2013-10-27 02:10:00,
2013-10-26 22:12:00,58.6,53.1,30.12,North,360,0.0,2.0,82,0.00,,---,0.00,VWS V14.01,2013-10-27 02:12:00,
2013-10-26 22:17:00,58.4,52.9,30.12,North,360,0.0,2.0,82,0.00,,---,0.00,VWS V14.01,2013-10-27 02:17:00,
2013-10-26 22:20:00,58.3,53.2,30.12,North,360,0.0,2.0,83,0.00,,---,0.00,VWS V14.01,2013-10-27 02:20:00,
2013-10-26 22:22:00,58.2,53.1,30.12,North,360,0.0,0.0,83,0.00,,---,0.00,VWS V14.01,2013-10-27 02:22:00,
2013-10-26 22:27:00,58.2,53.1,30.12,North,360,0.0,0.0,83,0.00,,---,0.00,VWS V14.01,2013-10-27 02:27:00,
2013-10-26 22:30:00,58.1,53.0,30.12,North,360,0.0,0.0,83,0.00,,---,0.00,VWS V14.01,2013-10-27 02:30:00,
2013-10-26 22:32:00,58.0,52.9,30.12,North,360,0.0,0.0,83,0.00,,---,0.00,VWS V14.01,2013-10-27 02:32:00,
2013-10-26 22:37:00,57.8,53.0,30.12,North,360,2.0,2.0,84,0.00,,---,0.00,VWS V14.01,2013-10-27 02:37:00,
2013-10-26 22:40:00,57.7,52.9,30.12,North,360,2.0,3.0,84,0.00,,---,0.00,VWS V14.01,2013-10-27 02:40:00,
2013-10-26 22:42:00,57.8,53.0,30.12,North,360,0.0,2.0,84,0.00,,---,0.00,VWS V14.01,2013-10-27 02:42:00,
2013-10-26 22:47:00,57.8,53.0,30.12,North,360,3.0,3.0,84,0.00,,---,0.00,VWS V14.01,2013-10-27 02:47:00,
2013-10-26 22:50:00,57.8,53.3,30.12,North,360,3.0,3.0,85,0.00,,---,0.00,VWS V14.01,2013-10-27 02:50:00,
2013-10-26 22:52:00,57.8,53.3,30.12,North,360,1.0,4.0,85,0.00,,---,0.00,VWS V14.01,2013-10-27 02:52:00,
2013-10-26 22:57:00,57.8,53.3,30.12,North,360,0.0,4.0,85,0.00,,---,0.00,VWS V14.01,2013-10-27 02:57:00,
2013-10-26 23:00:00,57.8,53.3,30.12,North,360,0.0,4.0,85,0.00,,---,0.00,VWS V14.01,2013-10-27 03:00:00,
2013-10-26 23:02:00,57.8,53.3,30.12,North,360,0.0,0.0,85,0.00,,---,0.00,VWS V14.01,2013-10-27 03:02:00,
2013-10-26 23:07:00,57.8,53.3,30.11,North,360,2.0,4.0,85,0.00,,---,0.00,VWS V14.01,2013-10-27 03:07:00,
2013-10-26 23:10:00,57.9,53.4,30.11,North,360,1.0,4.0,85,0.00,,---,0.00,VWS V14.01,2013-10-27 03:10:00,
2013-10-26 23:12:00,57.9,53.4,30.11,North,360,2.0,3.0,85,0.00,,---,0.00,VWS V14.01,2013-10-27 03:12:00,
2013-10-26 23:17:00,58.1,53.9,30.11,North,360,4.0,4.0,86,0.00,,---,0.00,VWS V14.01,2013-10-27 03:17:00,
2013-10-26 23:20:00,58.3,53.8,30.11,North,360,3.0,5.0,85,0.00,,---,0.00,VWS V14.01,2013-10-27 03:20:00,
2013-10-26 23:22:00,58.3,53.8,30.11,North,360,4.0,4.0,85,0.00,,---,0.00,VWS V14.01,2013-10-27 03:22:00,
2013-10-26 23:27:00,58.4,53.9,30.11,North,360,2.0,5.0,85,0.00,,---,0.00,VWS V14.01,2013-10-27 03:27:00,
2013-10-26 23:30:00,58.4,53.9,30.11,North,360,2.0,5.0,85,0.00,,---,0.00,VWS V14.01,2013-10-27 03:30:00,
2013-10-26 23:32:00,58.4,53.6,30.11,North,360,2.0,2.0,84,0.00,,---,0.00,VWS V14.01,2013-10-27 03:32:00,
2013-10-26 23:37:00,58.4,53.6,30.11,North,360,0.0,4.0,84,0.00,,---,0.00,VWS V14.01,2013-10-27 03:37:00,
2013-10-26 23:40:00,58.4,53.6,30.11,North,360,1.0,4.0,84,0.00,,---,0.00,VWS V14.01,2013-10-27 03:40:00,
2013-10-26 23:42:00,58.4,53.6,30.11,North,360,0.0,2.0,84,0.00,,---,0.00,VWS V14.01,2013-10-27 03:42:00,
2013-10-26 23:47:00,58.2,53.4,30.11,North,360,0.0,2.0,84,0.00,,---,0.00,VWS V14.01,2013-10-27 03:47:00,
2013-10-26 23:50:00,58.1,53.3,30.11,North,360,1.0,2.0,84,0.00,,---,0.00,VWS V14.01,2013-10-27 03:50:00,
2013-10-26 23:52:00,58.1,53.3,30.11,North,360,2.0,2.0,84,0.00,,---,0.00,VWS V14.01,2013-10-27 03:52:00,
2013-10-26 23:57:00,57.9,53.1,30.11,North,360,0.0,3.0,84,0.00,,---,0.00,VWS V14.01,2013-10-27 03:57:00,